Location: Asheville, NC
(35.6000°N, 82.5500°W)
Time: 01:51:52
(UTC-04:00)

RS-15 - Pass Details

Date: 11 January 2018
Orbit: 1891 x 2154 km, 64.8° (Epoch: 20 July)

Event Time Altitude Azimuth Distance (km) Brightness Sun altitude
Rises 18:22:44 0° 331° (NNW) 5,582 10.5 -9.4°
Reaches altitude 10° 18:26:30 10° 338° (NNW) 4,544 10.0 -10.1°
Maximum altitude 18:37:40 46° 49° (NE) 2,515 8.2 -12.3°
Drops below altitude 10° 18:48:13 10° 121° (ESE) 4,332 9.5 -14.3°
Sets 18:51:39 0° 127° (SE) 5,304 10.0 -15.0°
